TimeCDT,TemperatureF,Dew PointF,Humidity,Sea Level PressureIn,VisibilityMPH,Wind Direction,Wind SpeedMPH,Gust SpeedMPH,PrecipitationIn,Events,Conditions,WindDirDegrees,DateUTC
12:15 AM,66.2,64.4,94,29.96,10.0,Calm,Calm,-,N/A,,Clear,0,2013-06-14 05:15:00
12:35 AM,62.6,62.6,100,29.95,10.0,Calm,Calm,-,N/A,,Clear,0,2013-06-14 05:35:00
12:55 AM,60.8,60.8,100,29.95,10.0,Calm,Calm,-,N/A,,Clear,0,2013-06-14 05:55:00
1:15 AM,62.6,62.6,100,29.95,8.0,Calm,Calm,-,N/A,,Clear,0,2013-06-14 06:15:00
1:35 AM,60.8,60.8,100,29.94,7.0,Calm,Calm,-,N/A,,Clear,0,2013-06-14 06:35:00
1:55 AM,60.8,60.8,100,29.95,8.0,Calm,Calm,-,N/A,,Partly Cloudy,0,2013-06-14 06:55:00
2:15 AM,60.8,60.8,100,29.95,7.0,Calm,Calm,-,N/A,,Partly Cloudy,0,2013-06-14 07:15:00
2:35 AM,59.0,59.0,100,29.95,2.5,Calm,Calm,-,N/A,,Clear,0,2013-06-14 07:35:00
2:55 AM,59.0,59.0,100,29.95,4.0,Calm,Calm,-,N/A,,Clear,0,2013-06-14 07:55:00
3:15 AM,60.8,60.8,100,29.96,6.0,Calm,Calm,-,N/A,,Clear,0,2013-06-14 08:15:00
3:35 AM,60.8,60.8,100,29.95,5.0,Calm,Calm,-,N/A,,Clear,0,2013-06-14 08:35:00
3:55 AM,60.8,60.8,100,29.96,10.0,Calm,Calm,-,N/A,,Clear,0,2013-06-14 08:55:00
4:15 AM,59.0,59.0,100,29.97,10.0,Calm,Calm,-,N/A,,Clear,0,2013-06-14 09:15:00
4:35 AM,57.2,57.2,100,29.97,8.0,Calm,Calm,-,N/A,,Clear,0,2013-06-14 09:35:00
4:55 AM,57.2,57.2,100,29.98,9.0,Calm,Calm,-,N/A,,Clear,0,2013-06-14 09:55:00
5:15 AM,59.0,59.0,100,29.98,10.0,NNE,4.6,-,N/A,,Clear,30,2013-06-14 10:15:00
5:35 AM,57.2,57.2,100,30.00,9.0,Calm,Calm,-,N/A,,Clear,0,2013-06-14 10:35:00
5:55 AM,59.0,57.2,94,30.00,10.0,Calm,Calm,-,N/A,,Clear,0,2013-06-14 10:55:00
6:15 AM,60.8,59.0,94,30.00,10.0,NNE,3.5,-,N/A,,Clear,20,2013-06-14 11:15:00
6:35 AM,60.8,60.8,100,30.00,10.0,Calm,Calm,-,N/A,,Clear,0,2013-06-14 11:35:00
6:55 AM,62.6,62.6,100,30.00,10.0,Calm,Calm,-,N/A,,Clear,0,2013-06-14 11:55:00
7:15 AM,64.4,62.6,94,30.01,10.0,Calm,Calm,-,N/A,,Clear,0,2013-06-14 12:15:00
7:35 AM,64.4,64.4,100,30.02,10.0,NNE,3.5,-,N/A,,Clear,20,2013-06-14 12:35:00
7:55 AM,66.2,64.4,94,30.02,10.0,NNE,4.6,-,N/A,,Clear,20,2013-06-14 12:55:00
8:15 AM,66.2,64.4,94,30.03,10.0,North,5.8,-,N/A,,Clear,10,2013-06-14 13:15:00
8:35 AM,68.0,64.4,88,30.03,10.0,North,3.5,-,N/A,,Clear,10,2013-06-14 13:35:00
8:55 AM,69.8,64.4,83,30.04,10.0,North,4.6,-,N/A,,Clear,360,2013-06-14 13:55:00
9:15 AM,71.6,66.2,83,30.04,10.0,East,5.8,-,N/A,,Clear,100,2013-06-14 14:15:00
9:35 AM,71.6,66.2,83,30.03,10.0,Calm,Calm,-,N/A,,Clear,0,2013-06-14 14:35:00
9:55 AM,73.4,66.2,78,30.03,10.0,WNW,3.5,-,N/A,,Clear,300,2013-06-14 14:55:00
10:15 AM,73.4,66.2,78,30.03,10.0,NE,4.6,-,N/A,,Clear,40,2013-06-14 15:15:00
10:35 AM,75.2,66.2,73,30.03,10.0,NNE,4.6,-,N/A,,Clear,30,2013-06-14 15:35:00
10:55 AM,75.2,66.2,73,30.04,10.0,ENE,4.6,-,N/A,,Clear,60,2013-06-14 15:55:00
11:15 AM,77.0,66.2,69,30.05,10.0,Variable,5.8,-,N/A,,Clear,0,2013-06-14 16:15:00
11:35 AM,75.2,66.2,73,30.04,10.0,Calm,Calm,-,N/A,,Clear,0,2013-06-14 16:35:00
11:55 AM,75.2,68.0,78,30.04,10.0,Variable,4.6,-,N/A,,Clear,0,2013-06-14 16:55:00
12:15 PM,78.8,68.0,69,30.04,10.0,ENE,5.8,-,N/A,,Clear,70,2013-06-14 17:15:00
12:35 PM,78.8,68.0,69,30.04,10.0,NNE,5.8,-,N/A,,Clear,30,2013-06-14 17:35:00
12:55 PM,78.8,68.0,69,30.03,10.0,Variable,3.5,-,N/A,,Clear,0,2013-06-14 17:55:00
1:15 PM,78.8,69.8,74,30.03,10.0,North,5.8,-,N/A,,Clear,10,2013-06-14 18:15:00
1:35 PM,80.6,69.8,70,30.02,10.0,NNE,8.1,-,N/A,,Clear,20,2013-06-14 18:35:00
1:55 PM,80.6,68.0,65,30.01,10.0,NE,8.1,-,N/A,,Clear,40,2013-06-14 18:55:00
2:15 PM,80.6,68.0,65,30.01,10.0,NE,6.9,-,N/A,,Clear,50,2013-06-14 19:15:00
2:35 PM,80.6,68.0,65,30.01,10.0,Variable,5.8,-,N/A,,Clear,0,2013-06-14 19:35:00
2:55 PM,80.6,66.2,61,30.01,10.0,North,4.6,-,N/A,,Clear,360,2013-06-14 19:55:00
3:15 PM,80.6,68.0,65,30.01,10.0,North,8.1,-,N/A,,Clear,360,2013-06-14 20:15:00
3:35 PM,80.6,68.0,65,30.02,10.0,NE,4.6,-,N/A,,Clear,40,2013-06-14 20:35:00
3:55 PM,80.6,66.2,61,30.01,10.0,Variable,5.8,-,N/A,,Clear,0,2013-06-14 20:55:00
4:15 PM,80.6,66.2,61,30.01,10.0,NE,5.8,-,N/A,,Clear,40,2013-06-14 21:15:00
4:35 PM,80.6,69.8,70,30.00,10.0,NE,5.8,-,N/A,,Clear,50,2013-06-14 21:35:00
4:55 PM,80.6,66.2,61,30.00,10.0,NNE,5.8,-,N/A,,Clear,20,2013-06-14 21:55:00
5:15 PM,80.6,68.0,65,30.00,10.0,NE,6.9,-,N/A,,Clear,50,2013-06-14 22:15:00
5:35 PM,80.6,68.0,65,30.00,10.0,NE,4.6,-,N/A,,Clear,40,2013-06-14 22:35:00
5:55 PM,78.8,68.0,69,30.00,10.0,Variable,5.8,-,N/A,,Clear,0,2013-06-14 22:55:00
6:15 PM,78.8,66.2,65,30.01,10.0,Variable,5.8,-,N/A,,Clear,0,2013-06-14 23:15:00
6:35 PM,78.8,66.2,65,30.01,10.0,NE,4.6,-,N/A,,Clear,40,2013-06-14 23:35:00
6:55 PM,77.0,66.2,69,30.01,10.0,NE,4.6,-,N/A,,Clear,40,2013-06-14 23:55:00
7:15 PM,77.0,66.2,69,30.02,10.0,Calm,Calm,-,N/A,,Clear,0,2013-06-15 00:15:00
7:35 PM,73.4,68.0,83,30.03,10.0,Calm,Calm,-,N/A,,Clear,0,2013-06-15 00:35:00
7:55 PM,71.6,66.2,83,30.02,10.0,Calm,Calm,-,N/A,,Clear,0,2013-06-15 00:55:00
8:15 PM,69.8,64.4,83,30.03,10.0,Calm,Calm,-,N/A,,Clear,0,2013-06-15 01:15:00
8:35 PM,68.0,64.4,88,30.02,10.0,ENE,3.5,-,N/A,,Clear,60,2013-06-15 01:35:00
8:55 PM,66.2,64.4,94,30.02,10.0,Calm,Calm,-,N/A,,Clear,0,2013-06-15 01:55:00
9:15 PM,64.4,64.4,100,30.03,10.0,Calm,Calm,-,N/A,,Clear,0,2013-06-15 02:15:00
9:35 PM,64.4,64.4,100,30.04,10.0,Calm,Calm,-,N/A,,Clear,0,2013-06-15 02:35:00
9:55 PM,64.4,62.6,94,30.05,10.0,Calm,Calm,-,N/A,,Clear,0,2013-06-15 02:55:00
10:15 PM,62.6,62.6,100,30.06,10.0,ENE,3.5,-,N/A,,Clear,70,2013-06-15 03:15:00
10:35 PM,62.6,62.6,100,30.06,10.0,Calm,Calm,-,N/A,,Clear,0,2013-06-15 03:35:00
10:55 PM,60.8,60.8,100,30.07,10.0,Calm,Calm,-,N/A,,Clear,0,2013-06-15 03:55:00
11:15 PM,60.8,60.8,100,30.06,10.0,Calm,Calm,-,N/A,,Clear,0,2013-06-15 04:15:00
11:35 PM,60.8,60.8,100,30.06,10.0,Calm,Calm,-,N/A,,Clear,0,2013-06-15 04:35:00
11:55 PM,60.8,60.8,100,30.06,10.0,Calm,Calm,-,N/A,,Clear,0,2013-06-15 04:55:00